Date String (YYYY-MM-DD hh:mm:ss) UTC,Instrument flags,absolute air pressure of the measurement (hPa),sample flow rate (lpm),inlet stack bypass flow (lpm),air temperature of the measurement (°C),ambient temperature measured by the external sensor (°C),aerosol sample conditioner tube jacket temperature (°C),OPC LED temperature (°C),internal box temperature (°C),relative humidity of the measurement (%),span deviation,mass concentration of particles derived from Lorenz-Mie calculation of OPC scattering (μg/m³),mass concentration of particles derived from Lorenz-Mie calculation of OPC scattering (μg/m³),mass concentration of particles derived from Lorenz-Mie calculation of OPC scattering (μg/m³)
DateTimeUTC,F1_M11,P_M11,Q1_M11,Q2_M11,T1_M11,T2_M11,T3_M11,T4_M11,T5_M11,U1_M11,ZSPAN_M11,X0_M11,X2_M11,X1_M11
2023-12-01 18:00:00,SystemResetWarning,0821.1,5.00,000.00,018.7,017.7,000.0,027.2,020.0,18.3,-000.2,0020.36,0013.48,0012.48
2023-12-01 18:01:00,SystemResetWarning,0821.0,5.00,000.00,018.7,017.7,000.0,027.2,020.0,18.2,0000.2,0020.39,0013.49,0012.53
2023-12-01 18:02:00,SystemResetWarning,0820.9,5.00,000.00,018.7,017.7,000.0,027.2,020.0,18.2,0000.6,0020.84,0013.55,0012.57
2023-12-01 18:03:00,SystemResetWarning,0820.8,5.01,000.00,018.7,017.7,000.0,027.2,020.0,18.3,0000.4,0020.45,0013.59,0012.62
2023-12-01 18:04:00,SystemResetWarning,0820.9,5.00,000.00,018.7,017.7,000.0,027.2,020.0,18.5,0000.4,0021.04,0013.63,0012.64
2023-12-01 18:05:00,SystemResetWarning,0820.9,5.01,000.00,018.7,017.7,000.0,027.2,020.0,18.6,0000.6,0020.78,0013.60,0012.61
2023-12-01 18:06:00,SystemResetWarning,0820.8,4.99,000.00,018.7,017.7,000.0,027.2,020.0,18.5,0001.4,0020.50,0013.53,0012.61
2023-12-01 18:07:00,SystemResetWarning,0820.8,5.00,000.00,018.7,017.7,000.0,027.2,020.0,18.4,0001.6,0021.09,0013.50,0012.60
2023-12-01 18:08:00,SystemResetWarning,0820.8,4.99,000.00,018.7,017.7,000.0,027.2,020.0,18.3,0001.4,0020.90,0013.47,0012.58
2023-12-01 18:09:00,SystemResetWarning,0820.8,4.99,000.00,018.7,017.7,000.0,027.2,020.0,18.1,0001.4,0021.77,0013.40,0012.55
2023-12-01 18:10:00,SystemResetWarning,0820.8,5.00,000.00,018.7,017.7,000.0,027.2,020.0,18.1,0001.7,0021.86,0013.39,0012.52
2023-12-01 18:11:00,SystemResetWarning,0820.8,5.00,000.00,018.7,017.7,000.0,027.2,020.0,18.2,0001.5,0021.86,0013.35,0012.47
2023-12-01 18:12:00,SystemResetWarning,0820.8,5.00,000.00,018.7,017.7,000.0,027.2,020.0,18.2,0001.8,0022.07,0013.32,0012.43
2023-12-01 18:13:00,SystemResetWarning,0820.8,5.00,000.00,018.7,017.6,000.0,027.2,020.0,18.2,0002.4,0022.53,0013.30,0012.36
2023-12-01 18:14:00,SystemResetWarning,0820.8,5.01,000.00,018.7,017.6,000.0,027.2,020.0,18.1,0002.2,0022.58,0013.25,0012.29
2023-12-01 18:15:00,SystemResetWarning,0820.8,5.00,000.00,018.7,017.6,000.0,027.2,020.0,18.0,0001.5,0022.37,0013.25,0012.25
2023-12-01 18:16:00,SystemResetWarning,0820.8,5.00,000.00,018.7,017.6,000.0,027.2,020.0,17.9,0001.6,0022.14,0013.32,0012.26
2023-12-01 18:17:00,SystemResetWarning,0820.7,5.00,000.00,018.7,017.6,000.0,027.2,020.0,17.8,0001.5,0022.17,0013.35,0012.26
2023-12-01 18:18:00,SystemResetWarning,0820.7,5.00,000.00,018.7,017.6,000.0,027.2,020.0,17.8,0002.1,0021.77,0013.37,0012.27
2023-12-01 18:19:00,SystemResetWarning,0820.7,5.00,000.00,018.7,017.6,000.0,027.2,020.0,17.8,0002.3,0022.92,0013.40,0012.25
2023-12-01 18:20:00,SystemResetWarning,0820.6,5.00,000.00,018.7,017.6,000.0,027.2,020.0,17.9,0003.1,0022.05,0013.44,0012.23
2023-12-01 18:21:00,SystemResetWarning,0820.6,5.01,000.00,018.7,017.6,000.0,027.2,020.0,18.1,0002.9,0022.15,0013.38,0012.20
2023-12-01 18:22:00,SystemResetWarning,0820.5,5.00,000.00,018.7,017.7,000.0,027.2,020.0,18.0,0002.8,0022.68,0013.30,0012.17
2023-12-01 18:23:00,SystemResetWarning,0820.6,5.01,000.00,018.7,017.7,000.0,027.2,020.0,17.9,0002.7,0023.06,0013.29,0012.13
2023-12-01 18:24:00,SystemResetWarning,0820.5,5.00,000.00,018.7,017.7,000.0,027.2,020.0,17.6,0002.3,0022.93,0013.19,0012.08
2023-12-01 18:25:00,SystemResetWarning,0820.5,5.00,000.00,018.7,017.7,000.0,027.2,020.0,17.3,0002.9,0022.78,0013.19,0012.07
2023-12-01 18:26:00,SystemResetWarning,0820.5,4.99,000.00,018.7,017.7,000.0,027.2,020.0,17.4,0003.4,0022.79,0013.13,0012.03
2023-12-01 18:27:00,SystemResetWarning,0821.1,4.99,000.00,018.7,017.7,000.0,027.2,020.0,17.3,0003.4,0022.66,0013.02,0011.96
2023-12-01 18:28:00,SystemResetWarning,0820.8,5.00,000.00,018.7,017.7,000.0,027.2,020.0,17.3,0003.3,0022.77,0012.97,0011.91
2023-12-01 18:29:00,SystemResetWarning,0820.6,5.00,000.00,018.7,017.7,000.0,027.2,020.0,17.6,0002.5,0022.67,0012.91,0011.84
2023-12-01 18:30:00,SystemResetWarning,0820.4,5.01,000.00,018.7,017.7,000.0,027.2,020.0,17.6,0002.4,0021.77,0012.89,0011.83
2023-12-01 18:31:00,SystemResetWarning,0820.3,5.00,000.00,018.7,017.7,000.0,027.2,020.0,17.7,0001.8,0021.86,0012.91,0011.85
2023-12-01 18:32:00,SystemResetWarning,0820.3,5.00,000.00,018.7,017.7,000.0,027.2,020.0,17.7,0001.8,0021.74,0012.93,0011.88
2023-12-01 18:33:00,SystemResetWarning,0820.3,5.00,000.00,018.7,017.7,000.0,027.2,020.0,17.7,0001.6,0021.47,0012.96,0011.91
2023-12-01 18:34:00,SystemResetWarning,0820.3,4.99,000.00,018.7,017.8,000.0,027.2,020.0,17.4,0001.6,0021.11,0012.96,0011.94
2023-12-01 18:35:00,SystemResetWarning,0820.2,4.99,000.00,018.7,017.8,000.0,027.2,020.0,17.4,0001.6,0020.42,0013.02,0011.98
2023-12-01 18:36:00,SystemResetWarning,0820.2,5.00,000.00,018.7,017.8,000.0,027.2,020.0,17.3,0001.6,0020.21,0012.99,0012.01
2023-12-01 18:37:00,SystemResetWarning,0820.2,5.01,000.00,018.7,017.8,000.0,027.2,020.0,17.5,0001.5,0020.22,0012.98,0012.04
2023-12-01 18:38:00,SystemResetWarning,0820.2,5.01,000.00,018.7,017.8,000.0,027.2,020.0,17.4,0001.1,0020.09,0012.99,0012.07
2023-12-01 18:39:00,SystemResetWarning,0820.2,5.00,000.00,018.8,017.8,000.0,027.2,020.0,17.4,0001.4,0020.04,0013.01,0012.12
2023-12-01 18:40:00,SystemResetWarning,0820.1,5.00,000.00,018.8,017.8,000.0,027.2,020.0,17.7,0001.9,0020.59,0013.07,0012.17
2023-12-01 18:41:00,SystemResetWarning,0820.1,5.00,000.00,018.8,017.9,000.0,027.2,020.0,17.3,0001.6,0020.96,0013.07,0012.18
2023-12-01 18:42:00,SystemResetWarning,0820.1,5.00,000.00,018.8,017.9,000.0,027.2,020.0,17.7,0002.0,0021.12,0013.01,0012.17
2023-12-01 18:43:00,SystemResetWarning,0820.1,5.00,000.00,018.8,017.9,000.0,027.2,020.0,17.3,0002.2,0021.37,0013.04,0012.16
2023-12-01 18:44:00,SystemResetWarning,0820.1,4.99,000.00,018.8,017.9,000.0,027.1,020.0,16.8,0002.3,0020.94,0013.06,0012.17
2023-12-01 18:45:00,SystemResetWarning,0820.0,5.00,000.00,018.8,017.9,000.0,027.1,020.0,16.5,0002.3,0020.89,0013.06,0012.16
2023-12-01 18:46:00,SystemResetWarning,0820.0,5.00,000.00,018.8,017.9,000.0,027.1,020.0,16.3,0002.3,0020.87,0013.08,0012.16
2023-12-01 18:47:00,SystemResetWarning,0820.1,5.00,000.00,018.8,017.9,000.0,027.1,020.0,16.2,0002.0,0020.86,0013.11,0012.18
2023-12-01 18:48:00,SystemResetWarning,0820.0,5.01,000.00,018.8,017.9,000.0,027.1,020.0,15.9,0001.9,0020.89,0013.12,0012.18
2023-12-01 18:49:00,SystemResetWarning,0819.9,5.00,000.00,018.8,017.9,000.0,027.1,020.0,16.3,0002.3,0021.24,0013.14,0012.18
2023-12-01 18:50:00,SystemResetWarning,0820.0,5.01,000.00,018.8,017.9,000.0,027.1,020.0,16.6,0002.0,0021.21,0013.15,0012.18
2023-12-01 18:51:00,SystemResetWarning,0820.0,5.01,000.00,018.8,018.0,000.0,027.1,020.0,17.2,0002.2,0020.96,0013.14,0012.17
2023-12-01 18:52:00,SystemResetWarning,0820.0,5.01,000.00,018.8,018.0,000.0,027.1,020.0,16.9,0002.1,0020.39,0013.16,0012.17
2023-12-01 18:53:00,SystemResetWarning,0820.0,5.00,000.00,018.8,018.0,000.0,027.1,020.0,16.9,0001.9,0020.00,0013.18,0012.18
2023-12-01 18:54:00,SystemResetWarning,0820.2,4.99,000.00,018.8,018.0,000.0,027.1,020.0,16.9,0001.8,0019.72,0013.17,0012.19
2023-12-01 18:55:00,SystemResetWarning,0819.9,4.99,000.00,018.8,018.0,000.0,027.1,020.0,16.4,0002.0,0019.27,0013.15,0012.18
2023-12-01 18:56:00,SystemResetWarning,0819.8,4.99,000.00,018.8,018.0,000.0,027.1,020.0,16.5,0002.5,0019.16,0013.15,0012.20
2023-12-01 18:57:00,SystemResetWarning,0819.8,5.00,000.00,018.8,018.0,000.0,027.1,020.0,16.5,0002.6,0018.86,0013.13,0012.21
2023-12-01 18:58:00,SystemResetWarning,0819.9,5.01,000.00,018.8,018.1,000.0,027.1,020.0,16.4,0002.9,0018.82,0013.08,0012.19
2023-12-01 18:59:00,SystemResetWarning,0819.9,5.01,000.00,018.8,018.1,000.0,027.1,020.0,16.8,0003.2,0018.59,0013.12,0012.19
